logo
Search for airport 
image banner adimage banner adimage banner ad
image banner ad

EHLN - L10-C (Oil Platform)

Located in , Netherlands

ICAO - , IATA -

Data provided by Airmate  

General information

Coordinates: N53°23'35" E4°12'3"
Elevation is feet MSL.
 
View others Airports in Noord-Holland

Operational data

Special qualification required
Current time UTC:
Current local time:
Weather at : EHKV - K14-Fa-1C (Oil Platform) ( 41 km )
METAR: EHKV 302155Z AUTO 30020KT 250V330 9000 FEW006 BKN039 OVC045 13/12 Q1008
View NOTAMs / SUP AIP / TFR affecting this airport [VIEW]
Communications frequencies: [VIEW]

Runways:

Airport contact information

Address: Netherlands

Satellite view of EHLN